Ana Sayfa
METAR-TAF:

METAR-TAF

Havaalanları :

New River Valley Airport

Dublin, Virginia, Amerika Birleşik Devletleri

Enlem: 37-08N, Boylam: 080-41W, yükseklik: 642 m

Güncel hava durumu gözlemi

Rapor saat 04:15 UTC de 29 dakika önce yapıldı.
Rüzgar doğu/kuzeydoğudan 5 kt
Sıcaklık -6°C
Nem 68%
Basınç 1027 hPa
Görüş mesafesi: 16.1 km
2800 ft yükseklikte çok bulutlu

METAR: KPSK 220415Z AUTO 06005KT 10SM OVC028 M06/M11 A3033 RMK AO2 T10621108

Saat: 23:44 (04:44 UTC)


TAF: eksik

4.000'den fazla havaalanı için hava durumu gözlemleri ve tahminleri (METAR ve TAF raporları).

Kullanılabilir istasyonlar harita üzerinde sarı ve kırmızı noktalarla gösterilir.

İstasyonun adını görmek için fareyi noktanın üzerinde gezdirin.

Sonrasında hava gözlem ve tahminlerini görmek için tıklayın.

Haritayı değiştirmek için: yaklaştırmak için siyah artı işaretli yeşil düğmeye ve uzaklaştırmak için de eksi işaretli düğmeye hızla tıklayın; bitişik haritalar için yeşil okları kullanın.


METAR-TAF: